"Date","Time","Temp","SpCond","Salinity","DO%","DO Conc","Depth","pH","Turbidity+"
"M/D/Y","hh:mm:ss","C","mS/cm","ppt","%","mg/L","m","","NTU"
"05/11/09","07:45:20",22.22,0.006,0.00,101.0,8.79,0.035,7.83,0.7
"05/11/09","08:00:20",22.05,0.007,0.00,100.9,8.81,0.036,7.82,0.6
"05/11/09","08:15:19",21.13,0.006,0.00,101.2,9.00,0.014,7.82,0.5
"05/11/09","08:30:19",20.87,0.006,0.00,101.5,9.07,0.038,7.94,0.5
"05/11/09","08:45:19",20.80,0.006,0.00,101.2,9.05,0.020,7.94,0.4
"05/11/09","09:00:19",20.72,0.006,0.00,101.6,9.11,0.035,7.97,0.4
"05/11/09","09:15:19",20.51,0.006,0.00,101.8,9.16,0.033,8.02,0.4
"05/11/09","09:30:19",20.26,0.006,0.00,101.9,9.22,0.032,7.90,0.4
"05/11/09","09:45:19",20.24,0.006,0.00,102.0,9.23,0.033,7.80,0.4
"05/11/09","10:00:19",20.38,0.006,0.00,102.0,9.20,0.046,7.94,0.4
"05/11/09","10:15:19",19.97,0.006,0.00,102.4,9.32,0.040,7.99,0.4
"05/11/09","10:30:19",21.77,0.006,0.00,101.5,8.92,0.051,7.84,0.4
"05/11/09","10:45:19",24.80,0.006,0.00,101.2,8.39,0.049,7.60,0.1
"05/11/09","11:00:20",25.96,0.006,0.00,109.3,8.88,0.048,7.65,0.4
"05/11/09","11:15:19",26.32,0.006,0.00,105.3,8.49,0.041,7.82,0.4
"05/11/09","11:30:19",26.24,0.007,0.00,103.8,8.39,0.046,7.88,0.4
"05/11/09","11:45:19",25.20,0.007,0.00,103.1,8.49,0.030,7.69,0.4
"05/11/09","12:00:19",23.94,0.007,0.00,102.8,8.66,0.029,7.66,0.4
"05/11/09","12:15:19",23.01,0.008,0.00,102.4,8.78,0.022,7.77,0.4
"05/11/09","12:30:19",22.79,0.008,0.00,101.9,8.78,0.018,7.78,0.4
"05/11/09","12:45:19",22.71,0.008,0.00,101.8,8.78,0.021,7.75,0.3
"05/11/09","13:00:19",22.33,0.008,0.00,101.9,8.86,0.036,7.87,0.4
"05/11/09","13:15:19",27.81,13.352,7.66,88.8,6.69,2.003,7.60,52.1
"05/11/09","13:30:19",28.03,15.226,8.83,92.3,6.87,1.999,7.63,29.7
"05/11/09","13:45:19",28.08,15.804,9.19,90.8,6.75,1.978,7.60,23.8
"05/11/09","14:00:19",28.06,15.178,8.80,89.9,6.69,1.970,7.59,15.5
"05/11/09","14:15:19",28.07,16.488,9.62,88.1,6.53,1.949,7.57,12.5
"05/11/09","14:30:19",28.11,15.793,9.19,91.4,6.78,1.936,7.60,8.9
"05/11/09","14:45:19",28.06,16.833,9.84,85.9,6.36,1.908,7.55,11.5
"05/11/09","15:00:19",27.99,18.092,10.65,82.3,6.07,1.874,7.52,11.0
"05/11/09","15:15:19",27.49,9.540,5.33,85.5,6.56,1.832,7.51,11.2
"05/11/09","15:30:19",27.14,3.975,2.09,80.1,6.30,1.794,7.40,10.0
"05/11/09","15:45:19",26.51,2.158,1.10,70.6,5.65,1.735,7.30,55.7
"05/11/09","16:00:19",25.71,0.669,0.32,64.4,5.25,1.687,7.21,14.0
"05/11/09","16:15:19",26.45,2.506,1.29,71.5,5.72,1.632,7.28,6.4
"05/11/09","16:30:19",26.22,1.908,0.97,69.5,5.59,1.583,7.28,7.1
"05/11/09","16:45:19",25.96,0.776,0.38,67.7,5.49,1.528,7.26,7.1
"05/11/09","17:00:19",25.89,0.409,0.19,67.3,5.47,1.474,7.26,8.4
"05/11/09","17:15:18",25.85,0.329,0.16,66.0,5.37,1.425,7.24,7.1
"05/11/09","17:30:18",25.57,0.312,0.15,63.6,5.20,1.380,7.22,6.3
"05/11/09","17:45:19",25.32,0.303,0.14,62.5,5.13,1.333,7.21,6.2
"05/11/09","18:00:19",25.17,0.299,0.14,62.5,5.14,1.290,7.21,6.5
"05/11/09","18:15:19",25.24,0.295,0.14,63.3,5.20,1.242,7.22,6.4
"05/11/09","18:30:19",25.15,0.291,0.14,63.4,5.22,1.202,7.22,5.6
"05/11/09","18:45:19",25.03,0.289,0.14,62.7,5.18,1.167,7.22,5.7
"05/11/09","19:00:19",24.84,0.289,0.14,61.8,5.12,1.133,7.21,5.8
"05/11/09","19:15:19",24.68,0.288,0.14,60.9,5.06,1.107,7.20,5.7
"05/11/09","19:30:19",24.53,0.289,0.14,60.5,5.04,1.086,7.20,5.1
"05/11/09","19:45:19",24.49,0.289,0.14,60.4,5.04,1.067,7.20,5.1
"05/11/09","20:00:19",24.52,0.289,0.14,60.8,5.07,1.050,7.21,5.3
"05/11/09","20:15:19",24.55,0.290,0.14,61.3,5.10,1.035,7.21,4.5
"05/11/09","20:30:19",24.52,0.291,0.14,61.4,5.12,1.022,7.22,4.4
"05/11/09","20:45:19",24.50,0.292,0.14,61.6,5.13,1.009,7.22,4.5
"05/11/09","21:00:19",24.50,0.293,0.14,61.6,5.14,0.998,7.22,4.8
"05/11/09","21:15:19",24.51,0.293,0.14,61.7,5.14,0.991,7.22,4.4
"05/11/09","21:30:20",24.53,0.294,0.14,61.9,5.15,0.983,7.22,4.2
"05/11/09","21:45:19",24.55,0.294,0.14,61.9,5.15,0.976,7.22,3.7
"05/11/09","22:00:19",24.56,0.295,0.14,61.9,5.16,0.970,7.22,3.6
"05/11/09","22:15:19",24.56,0.295,0.14,61.8,5.14,0.963,7.22,3.5
"05/11/09","22:30:19",24.56,0.296,0.14,61.9,5.15,0.962,7.23,3.7
"05/11/09","22:45:19",24.55,0.296,0.14,62.0,5.16,0.961,7.23,3.8
"05/11/09","23:00:19",24.55,0.296,0.14,61.9,5.16,0.967,7.23,3.7
"05/11/09","23:15:19",24.53,0.297,0.14,61.6,5.13,0.982,7.23,3.2
"05/11/09","23:30:19",24.52,0.297,0.14,61.6,5.13,1.017,7.23,3.2
"05/11/09","23:45:19",24.51,0.299,0.14,61.4,5.12,1.069,7.23,2.3
"05/12/09","00:00:19",24.50,0.301,0.14,61.3,5.11,1.130,7.23,1.8
"05/12/09","00:15:19",24.47,0.310,0.15,62.4,5.20,1.192,7.24,2.0
"05/12/09","00:30:19",23.67,1.000,0.49,83.1,7.02,1.250,7.56,5.7
"05/12/09","00:45:19",23.84,0.591,0.29,75.7,6.38,1.304,7.49,5.6
"05/12/09","01:00:19",24.14,0.373,0.18,70.1,5.88,1.366,7.38,4.5
"05/12/09","01:15:19",24.23,0.373,0.18,69.4,5.81,1.417,7.35,3.6
"05/12/09","01:30:19",24.20,0.404,0.19,71.4,5.98,1.452,7.38,3.7
"05/12/09","01:45:19",24.14,0.460,0.22,74.3,6.23,1.491,7.42,4.3
"05/12/09","02:00:19",24.03,0.534,0.26,76.8,6.45,1.504,7.47,4.3
"05/12/09","02:15:19",23.97,0.561,0.27,77.9,6.55,1.520,7.50,4.0
"05/12/09","02:30:19",24.00,0.492,0.24,75.5,6.35,1.535,7.46,3.8
"05/12/09","02:45:19",24.08,0.451,0.22,73.6,6.18,1.525,7.41,4.0
"05/12/09","03:00:19",24.18,0.369,0.18,68.7,5.76,1.526,7.34,2.8
"05/12/09","03:15:19",24.28,0.329,0.16,65.3,5.46,1.533,7.29,2.9
"05/12/09","03:30:19",24.31,0.303,0.14,64.0,5.35,1.529,7.26,2.9
"05/12/09","03:45:19",24.11,0.308,0.15,67.6,5.67,1.513,7.31,3.2
"05/12/09","04:00:19",24.25,0.313,0.15,65.4,5.48,1.514,7.28,3.5
"05/12/09","04:15:19",24.19,0.306,0.15,65.2,5.47,1.508,7.28,2.3
"05/12/09","04:30:19",24.04,0.305,0.14,66.3,5.58,1.486,7.29,2.8
"05/12/09","04:45:19",24.21,0.302,0.14,63.4,5.31,1.478,7.26,2.4
"05/12/09","05:00:19",24.20,0.304,0.14,63.1,5.29,1.469,7.26,2.1
"05/12/09","05:15:19",24.16,0.309,0.15,62.4,5.23,1.466,7.25,2.1
"05/12/09","05:30:19",24.17,0.315,0.15,61.7,5.17,1.466,7.25,2.0
"05/12/09","05:45:19",24.19,0.316,0.15,61.6,5.16,1.443,7.24,3.0
"05/12/09","06:00:19",24.15,0.314,0.15,60.7,5.09,1.430,7.24,4.0
"05/12/09","06:15:19",24.09,0.311,0.15,60.4,5.07,1.398,7.23,6.1
"05/12/09","06:30:19",24.09,0.308,0.15,59.9,5.03,1.369,7.23,3.5
"05/12/09","06:45:19",24.08,0.303,0.14,59.9,5.03,1.333,7.23,3.6
"05/12/09","07:00:19",24.08,0.303,0.14,59.7,5.01,1.297,7.23,5.0
"05/12/09","07:15:19",24.05,0.300,0.14,59.6,5.01,1.254,7.23,4.6
"05/12/09","07:30:19",24.05,0.298,0.14,59.5,5.00,1.224,7.23,4.2
"05/12/09","07:45:19",24.06,0.297,0.14,59.6,5.00,1.204,7.23,4.3
"05/12/09","08:00:20",24.09,0.297,0.14,59.6,5.01,1.182,7.23,4.8
"05/12/09","08:15:20",24.11,0.298,0.14,59.7,5.01,1.176,7.23,5.6
"05/12/09","08:30:19",24.16,0.299,0.14,60.0,5.03,1.169,7.23,5.3
"05/12/09","08:45:19",24.21,0.300,0.14,60.4,5.06,1.168,7.23,4.1
"05/12/09","09:00:19",24.25,0.300,0.14,60.5,5.07,1.172,7.24,4.2
"05/12/09","09:15:19",24.30,0.302,0.14,60.6,5.07,1.178,7.24,2.9
"05/12/09","09:30:19",24.34,0.302,0.14,60.3,5.04,1.216,7.24,1.9
"05/12/09","09:45:19",24.38,0.304,0.14,60.3,5.04,1.253,7.24,1.9
"05/12/09","10:00:19",24.52,0.314,0.15,61.7,5.14,1.296,7.26,3.2
"05/12/09","10:15:19",24.76,0.316,0.15,64.9,5.38,1.347,7.28,2.9
"05/12/09","10:30:19",24.97,0.326,0.15,66.0,5.45,1.418,7.29,4.6
"05/12/09","10:45:19",25.22,0.345,0.16,67.4,5.54,1.476,7.31,3.1
"05/12/09","11:00:19",25.47,0.370,0.18,69.6,5.70,1.532,7.35,4.2
"05/12/09","11:15:19",25.67,0.724,0.35,71.0,5.79,1.586,7.36,5.4
"05/12/09","11:30:19",25.98,1.194,0.59,74.7,6.04,1.639,7.39,4.2
"05/12/09","11:45:19",26.07,1.241,0.62,76.5,6.18,1.672,7.40,6.1
"05/12/09","12:00:19",26.22,1.173,0.58,77.4,6.24,1.723,7.41,4.0
"05/12/09","12:15:19",26.32,1.194,0.59,78.5,6.31,1.770,7.42,4.0
"05/12/09","12:30:19",26.25,3.083,1.60,77.1,6.17,1.818,7.37,5.1
"05/12/09","12:45:19",26.28,6.962,3.81,73.0,5.77,1.843,7.32,5.4
"05/12/09","13:00:19",26.11,10.001,5.62,68.0,5.34,1.859,7.31,5.9
"05/12/09","13:15:19",26.11,11.302,6.41,66.0,5.15,1.894,7.30,6.9
"05/12/09","13:30:19",26.24,12.237,6.99,67.0,5.20,1.912,7.32,7.0
"05/12/09","13:45:19",26.33,12.786,7.32,67.7,5.24,1.931,7.34,6.9
"05/12/09","14:00:19",26.50,12.603,7.21,71.2,5.49,1.946,7.36,6.2
"05/12/09","14:15:19",26.44,12.839,7.36,69.6,5.38,1.963,7.35,9.7
"05/12/09","14:30:19",26.45,23.155,13.96,64.5,4.80,1.943,7.47,7.8
"05/12/09","14:45:19",26.42,24.031,14.54,61.9,4.59,1.928,7.47,8.2
"05/12/09","15:00:19",26.67,28.419,17.47,63.7,4.63,1.915,7.48,8.5
"05/12/09","15:15:19",26.77,30.029,18.56,64.7,4.67,1.908,7.50,8.5
"05/12/09","15:30:19",26.95,32.374,20.16,69.2,4.93,1.862,7.57,8.2
"05/12/09","15:45:19",26.98,32.833,20.47,69.7,4.95,1.841,7.59,7.8
"05/12/09","16:00:19",27.06,33.513,20.94,72.9,5.16,1.780,7.62,6.5
"05/12/09","16:15:19",27.05,33.563,20.98,72.3,5.12,1.744,7.62,6.6
"05/12/09","16:30:19",27.04,31.231,19.38,72.7,5.19,1.697,7.59,7.5
"05/12/09","16:45:19",26.76,7.723,4.25,72.2,5.64,1.656,7.38,7.0
"05/12/09","17:00:19",26.48,5.217,2.80,71.3,5.65,1.585,7.35,6.2
"05/12/09","17:15:19",26.02,3.660,1.92,68.1,5.47,1.530,7.28,13.8
"05/12/09","17:30:19",25.95,0.376,0.18,68.7,5.57,1.470,7.34,6.2
"05/12/09","17:45:19",25.81,0.351,0.17,67.7,5.51,1.415,7.32,6.2
"05/12/09","18:00:19",25.53,0.338,0.16,65.8,5.38,1.375,7.30,6.5
"05/12/09","18:15:19",25.33,0.332,0.16,64.8,5.31,1.328,7.28,6.4
"05/12/09","18:30:19",25.08,0.323,0.15,63.6,5.25,1.281,7.27,7.8
"05/12/09","18:45:19",25.12,0.316,0.15,63.5,5.24,1.240,7.27,6.6
"05/12/09","19:00:19",25.17,0.311,0.15,63.7,5.25,1.202,7.27,6.2
"05/12/09","19:15:19",25.05,0.311,0.15,63.5,5.24,1.170,7.26,5.0
"05/12/09","19:30:19",24.93,0.310,0.15,63.0,5.21,1.139,7.26,6.5
"05/12/09","19:45:19",24.73,0.312,0.15,62.3,5.17,1.109,7.25,5.7
"05/12/09","20:00:19",24.62,0.313,0.15,61.7,5.13,1.086,7.25,5.0
"05/12/09","20:15:19",24.60,0.314,0.15,61.8,5.14,1.068,7.25,4.4
"05/12/09","20:30:19",24.61,0.315,0.15,62.0,5.16,1.052,7.25,4.2
"05/12/09","20:45:19",24.60,0.315,0.15,62.1,5.16,1.037,7.25,4.0
"05/12/09","21:00:19",24.56,0.316,0.15,61.9,5.15,1.027,7.25,4.5
"05/12/09","21:15:19",24.53,0.318,0.15,61.8,5.15,1.017,7.25,4.3
"05/12/09","21:30:19",24.51,0.319,0.15,62.0,5.16,1.011,7.25,4.3
"05/12/09","21:45:19",24.51,0.320,0.15,62.0,5.16,1.006,7.25,4.2
"05/12/09","22:00:19",24.51,0.321,0.15,62.2,5.18,1.000,7.26,3.7
"05/12/09","22:15:19",24.51,0.321,0.15,62.7,5.22,0.995,7.26,3.2
"05/12/09","22:30:19",24.50,0.321,0.15,62.8,5.23,0.992,7.26,3.4
"05/12/09","22:45:19",24.49,0.323,0.15,62.8,5.24,0.987,7.26,3.0
"05/12/09","23:00:19",24.46,0.323,0.15,62.9,5.25,0.982,7.26,3.1
"05/12/09","23:15:19",24.44,0.325,0.15,62.9,5.25,0.976,7.27,2.9
"05/12/09","23:30:19",24.42,0.324,0.15,62.7,5.23,0.972,7.27,2.8
"05/12/09","23:45:19",24.41,0.324,0.15,62.8,5.24,0.973,7.27,2.7
"05/13/09","00:00:19",24.39,0.325,0.15,62.7,5.23,0.989,7.27,2.8
"05/13/09","00:15:19",24.37,0.327,0.16,62.5,5.22,1.034,7.27,2.5
"05/13/09","00:30:18",24.35,0.327,0.16,62.2,5.19,1.085,7.27,1.8
"05/13/09","00:45:19",24.34,0.357,0.17,62.0,5.19,1.135,7.27,2.1
"05/13/09","01:00:19",24.29,0.332,0.16,62.7,5.24,1.172,7.28,1.8
"05/13/09","01:15:19",24.13,0.347,0.17,63.4,5.32,1.239,7.28,2.2
"05/13/09","01:30:19",24.02,0.364,0.17,63.5,5.34,1.292,7.29,1.9
"05/13/09","01:45:19",23.80,0.407,0.19,65.8,5.56,1.345,7.32,2.0
"05/13/09","02:00:19",23.39,0.466,0.22,70.3,5.98,1.379,7.38,2.5
"05/13/09","02:15:19",23.10,0.586,0.28,73.0,6.24,1.429,7.44,3.2
"05/13/09","02:30:19",22.72,0.892,0.44,74.4,6.40,1.469,7.50,3.9
"05/13/09","02:45:19",22.30,1.570,0.79,76.3,6.60,1.500,7.60,4.8
"05/13/09","03:00:19",22.31,2.490,1.28,77.7,6.70,1.534,7.62,5.0
"05/13/09","03:15:19",23.62,13.305,7.67,66.9,5.42,1.566,7.39,6.7
"05/13/09","03:30:19",24.13,21.495,12.90,60.5,4.72,1.600,7.37,7.2
"05/13/09","03:45:19",24.53,30.965,19.24,58.4,4.36,1.638,7.48,6.1
"05/13/09","04:00:19",24.71,34.781,21.87,59.9,4.40,1.678,7.58,5.4
"05/13/09","04:15:19",24.71,34.930,21.97,54.8,4.02,1.683,7.57,4.8
"05/13/09","04:30:19",24.77,35.479,22.35,56.0,4.09,1.704,7.58,4.0
"05/13/09","04:45:19",24.85,36.850,23.31,54.6,3.96,1.703,7.58,3.8
"05/13/09","05:00:19",24.83,36.917,23.35,52.9,3.84,1.689,7.57,3.3
"05/13/09","05:15:19",24.82,37.004,23.41,50.9,3.69,1.683,7.55,2.9
"05/13/09","05:30:19",24.80,36.890,23.34,49.5,3.60,1.656,7.53,2.9
"05/13/09","05:45:19",24.80,36.774,23.25,53.4,3.88,1.640,7.56,2.9
"05/13/09","06:00:19",24.79,37.541,23.79,49.9,3.61,1.594,7.53,2.8
"05/13/09","06:15:19",24.78,36.998,23.41,48.1,3.50,1.571,7.51,2.2
"05/13/09","06:30:19",24.83,37.906,24.05,52.1,3.77,1.543,7.56,1.9
"05/13/09","06:45:19",24.80,36.960,23.38,48.1,3.49,1.528,7.51,2.0
"05/13/09","07:00:20",24.80,36.180,22.84,52.1,3.80,1.505,7.54,2.0
"05/13/09","07:15:19",24.75,35.454,22.33,47.7,3.49,1.476,7.49,3.2
"05/13/09","07:30:19",24.77,35.410,22.30,56.3,4.12,1.460,7.55,2.4
"05/13/09","07:45:19",24.75,35.069,22.07,53.2,3.90,1.447,7.53,2.2
"05/13/09","08:00:19",24.71,33.888,21.25,47.9,3.52,1.446,7.48,1.8
"05/13/09","08:15:19",24.75,33.388,20.90,47.6,3.51,1.419,7.47,1.8
"05/13/09","08:30:19",24.79,34.647,21.77,50.1,3.67,1.411,7.49,2.3
"05/13/09","08:45:19",24.77,34.522,21.68,46.7,3.43,1.422,7.46,2.1
"05/13/09","09:00:19",24.74,34.086,21.38,43.2,3.18,1.419,7.44,1.8
"05/13/09","09:15:19",24.75,33.974,21.31,43.4,3.19,1.421,7.44,1.8
"05/13/09","09:30:19",24.77,33.892,21.25,43.9,3.23,1.433,7.44,2.0
"05/13/09","09:45:19",24.77,33.744,21.15,44.7,3.29,1.454,7.44,2.7
"05/13/09","10:00:19",24.74,33.511,20.99,39.6,2.92,1.461,7.40,2.0
"05/13/09","10:15:19",24.71,33.150,20.74,37.6,2.78,1.472,7.39,2.0
"05/13/09","10:30:19",24.72,32.869,20.54,43.8,3.24,1.488,7.42,2.1
"05/13/09","10:45:19",24.73,33.015,20.64,41.1,3.03,1.520,7.41,2.1
"05/13/09","11:00:19",24.70,32.572,20.34,38.7,2.86,1.545,7.39,2.2
"05/13/09","11:15:19",24.70,31.969,19.92,37.8,2.81,1.571,7.38,2.2
"05/13/09","11:30:19",24.72,31.702,19.74,39.6,2.94,1.591,7.38,2.4
"05/13/09","11:45:19",24.74,32.485,20.28,40.8,3.02,1.638,7.39,2.6
"05/13/09","12:00:19",24.73,31.908,19.88,37.3,2.76,1.664,7.35,2.6
"05/13/09","12:15:19",24.82,31.278,19.45,38.8,2.88,1.701,7.35,2.5
"05/13/09","12:30:19",24.97,29.617,18.31,39.6,2.95,1.752,7.35,2.6
"05/13/09","12:45:19",25.07,31.570,19.64,41.3,3.05,1.809,7.35,3.6
"05/13/09","13:00:19",26.02,13.725,7.91,72.9,5.66,1.864,7.45,5.1
"05/13/09","13:15:19",26.64,15.908,9.27,83.9,6.39,1.909,7.60,5.8
"05/13/09","13:30:19",26.88,18.045,10.63,84.9,6.39,1.941,7.61,5.6
"05/13/09","13:45:19",27.10,18.623,11.00,91.3,6.83,1.982,7.68,5.5
"05/13/09","14:00:19",26.94,19.958,11.86,86.2,6.43,2.024,7.62,6.5
"05/13/09","14:15:19",27.21,20.350,12.11,89.7,6.66,2.040,7.65,4.9
"05/13/09","14:30:19",27.37,20.765,12.38,94.8,7.00,2.037,7.70,4.3
"05/13/09","14:45:19",27.60,20.747,12.37,102.3,7.53,2.039,7.76,4.2
"05/13/09","15:00:19",27.79,20.652,12.30,107.5,7.89,2.042,7.80,4.2
"05/13/09","15:15:19",27.78,21.122,12.61,108.8,7.97,2.039,7.81,3.7
"05/13/09","15:30:19",27.96,21.147,12.62,115.3,8.42,2.018,7.86,3.6
"05/13/09","15:45:19",27.07,22.246,13.35,86.4,6.38,2.009,7.61,3.4
"05/13/09","16:00:19",27.40,21.811,13.06,96.4,7.09,1.977,7.70,3.4
"05/13/09","16:15:19",27.49,21.316,12.74,100.5,7.40,1.975,7.73,2.9
"05/13/09","16:30:19",27.52,20.732,12.36,99.2,7.31,1.937,7.72,3.0
"05/13/09","16:45:19",27.52,19.852,11.79,94.2,6.96,1.909,7.67,3.3
"05/13/09","17:00:19",27.54,17.461,10.25,87.9,6.55,1.868,7.59,5.6
"05/13/09","17:15:19",27.78,13.718,7.89,91.4,6.88,1.818,7.59,5.6
"05/13/09","17:30:19",27.32,11.371,6.44,81.8,6.25,1.774,7.45,4.6
"05/13/09","17:45:19",26.85,7.622,4.19,73.4,5.73,1.728,7.33,4.8
"05/13/09","18:00:19",26.61,6.233,3.38,71.1,5.60,1.678,7.30,5.0
"05/13/09","18:15:19",26.30,4.806,2.56,69.9,5.56,1.615,7.29,4.4
"05/13/09","18:30:19",26.09,3.952,2.08,68.4,5.48,1.540,7.29,4.5
"05/13/09","18:45:19",25.90,2.137,1.09,67.2,5.43,1.485,7.29,7.5
"05/13/09","19:00:19",25.80,1.354,0.67,65.6,5.32,1.440,7.29,6.9
"05/13/09","19:15:19",25.64,0.528,0.25,65.2,5.32,1.388,7.31,8.4
"05/13/09","19:30:19",25.50,0.376,0.18,65.5,5.36,1.338,7.30,7.0
"05/13/09","19:45:19",25.36,0.359,0.17,65.6,5.38,1.297,7.30,6.6
"05/13/09","20:00:19",25.21,0.350,0.17,65.1,5.35,1.263,7.29,7.5
"05/13/09","20:15:19",25.04,0.344,0.16,64.8,5.35,1.224,7.29,5.7
"05/13/09","20:30:19",24.83,0.340,0.16,64.2,5.32,1.195,7.28,5.1
"05/13/09","20:45:19",24.72,0.340,0.16,63.5,5.27,1.166,7.28,4.3
"05/13/09","21:00:19",24.49,0.339,0.16,62.7,5.23,1.144,7.27,4.6
"05/13/09","21:15:19",24.46,0.340,0.16,62.9,5.24,1.125,7.28,4.4
"05/13/09","21:30:19",24.54,0.341,0.16,63.3,5.27,1.108,7.28,4.2
"05/13/09","21:45:19",24.55,0.341,0.16,63.5,5.29,1.091,7.29,4.0
"05/13/09","22:00:19",24.51,0.342,0.16,63.3,5.27,1.078,7.28,4.7
"05/13/09","22:15:19",24.47,0.345,0.16,63.2,5.27,1.063,7.28,4.4
"05/13/09","22:30:19",24.45,0.347,0.16,63.3,5.28,1.050,7.29,3.6
"05/13/09","22:45:19",24.43,0.349,0.17,63.3,5.28,1.039,7.29,3.2
"05/13/09","23:00:19",24.44,0.351,0.17,63.5,5.30,1.032,7.29,3.6
"05/13/09","23:15:19",24.46,0.351,0.17,63.6,5.31,1.030,7.29,2.9
"05/13/09","23:30:19",24.49,0.353,0.17,63.5,5.29,1.029,7.29,2.8
"05/13/09","23:45:19",24.52,0.353,0.17,63.5,5.29,1.036,7.29,3.1
"05/14/09","00:00:19",24.54,0.354,0.17,63.5,5.29,1.041,7.29,2.9
"05/14/09","00:15:19",24.53,0.356,0.17,63.6,5.30,1.062,7.29,2.6
"05/14/09","00:30:19",24.52,0.359,0.17,63.6,5.30,1.094,7.29,2.3
"05/14/09","00:45:19",24.50,0.365,0.17,62.9,5.24,1.138,7.30,1.8
"05/14/09","01:00:19",24.48,0.368,0.18,62.9,5.24,1.172,7.30,1.6
"05/14/09","01:15:19",24.42,0.399,0.19,63.6,5.31,1.232,7.30,1.8
"05/14/09","01:30:19",24.23,0.432,0.21,64.7,5.41,1.281,7.32,1.8
"05/14/09","01:45:19",24.16,0.449,0.22,64.8,5.43,1.325,7.32,1.8
"05/14/09","02:00:19",24.05,0.485,0.23,65.3,5.48,1.369,7.33,2.0
"05/14/09","02:15:19",23.84,0.540,0.26,66.6,5.62,1.414,7.36,2.3
"05/14/09","02:30:19",23.63,0.570,0.28,69.3,5.87,1.483,7.40,2.8
"05/14/09","02:45:19",23.49,0.620,0.30,70.7,6.00,1.523,7.44,2.8
"05/14/09","03:00:19",23.38,0.636,0.31,71.3,6.06,1.567,7.46,2.8
"05/14/09","03:15:19",23.33,0.652,0.32,72.1,6.13,1.644,7.48,3.5
"05/14/09","03:30:19",23.66,5.417,2.92,70.5,5.87,1.695,7.40,4.0
"05/14/09","03:45:19",23.76,6.869,3.77,69.6,5.76,1.722,7.42,4.8
"05/14/09","04:00:19",23.84,7.886,4.37,69.3,5.71,1.757,7.42,4.3
"05/14/09","04:15:19",23.96,8.190,4.55,68.8,5.65,1.774,7.42,4.3
"05/14/09","04:30:19",24.36,13.668,7.89,64.4,5.15,1.800,7.34,7.6
"05/14/09","04:45:19",25.06,23.252,14.05,57.6,4.39,1.837,7.41,7.4
"05/14/09","05:00:19",25.38,27.988,17.20,61.6,4.59,1.854,7.54,3.7
"05/14/09","05:15:19",25.38,28.644,17.65,60.5,4.49,1.850,7.53,3.2
"05/14/09","05:30:19",25.35,28.550,17.58,58.0,4.31,1.855,7.52,2.5
"05/14/09","05:45:19",25.44,30.728,19.06,60.4,4.44,1.824,7.54,2.0
"05/14/09","06:00:19",25.48,31.624,19.67,60.8,4.46,1.830,7.55,1.6
"05/14/09","06:15:19",25.56,32.444,20.24,62.2,4.54,1.816,7.57,1.7
"05/14/09","06:30:19",25.57,32.854,20.52,60.9,4.44,1.793,7.56,1.7
"05/14/09","06:45:19",25.59,33.061,20.66,60.4,4.39,1.780,7.56,1.8
"05/14/09","07:00:19",25.61,33.395,20.89,60.4,4.39,1.740,7.57,1.5
"05/14/09","07:15:19",25.58,33.322,20.84,59.6,4.33,1.717,7.56,1.7
"05/14/09","07:30:19",25.55,32.907,20.55,56.6,4.12,1.703,7.54,1.6
"05/14/09","07:45:19",25.54,32.666,20.39,57.2,4.17,1.688,7.53,1.8
"05/14/09","08:00:19",25.69,32.996,20.61,58.1,4.22,1.683,7.53,2.0
"05/14/09","08:15:19",25.62,32.943,20.58,54.9,4.00,1.653,7.51,1.9
"05/14/09","08:30:19",25.57,32.406,20.21,55.0,4.01,1.608,7.51,2.0
"05/14/09","08:45:19",25.66,32.949,20.58,55.8,4.06,1.592,7.52,2.1
"05/14/09","09:00:19",25.63,32.868,20.53,53.6,3.90,1.572,7.50,2.0
"05/14/09","09:15:19",25.57,32.511,20.28,52.4,3.82,1.544,7.49,2.0
"05/14/09","09:30:19",25.60,32.548,20.31,53.4,3.89,1.516,7.50,1.8
"05/14/09","09:45:19",25.63,32.700,20.41,55.4,4.03,1.505,7.52,1.8
"05/14/09","10:00:19",25.61,32.461,20.25,53.7,3.91,1.517,7.49,2.0
"05/14/09","10:15:19",25.58,32.101,20.00,52.0,3.80,1.550,7.48,1.9
"05/14/09","10:30:19",25.56,31.893,19.86,50.6,3.70,1.546,7.46,1.8
"05/14/09","10:45:19",25.55,32.021,19.94,49.9,3.65,1.568,7.44,2.3
"05/14/09","11:00:19",25.59,29.009,17.89,61.4,4.54,1.589,7.49,2.6
"05/14/09","11:15:19",25.83,31.873,19.84,59.1,4.30,1.626,7.52,2.0
"05/14/09","11:30:19",25.85,32.365,20.18,58.2,4.23,1.640,7.55,2.0
"05/14/09","11:45:19",25.85,32.332,20.15,55.4,4.02,1.686,7.52,2.3
"05/14/09","12:00:19",25.87,31.947,19.89,57.2,4.16,1.707,7.53,2.1
"05/14/09","12:15:19",25.86,31.845,19.82,55.5,4.04,1.732,7.50,1.9
"05/14/09","12:30:19",25.84,31.535,19.61,53.0,3.86,1.768,7.48,2.1
"05/14/09","12:45:19",25.89,31.014,19.25,52.1,3.80,1.804,7.46,2.1
"05/14/09","13:00:19",25.92,30.878,19.16,56.9,4.15,1.815,7.50,2.9
"05/14/09","13:15:19",25.90,30.425,18.85,54.0,3.95,1.820,7.47,2.6
"05/14/09","13:30:19",25.89,30.274,18.74,50.4,3.69,1.845,7.44,2.5
"05/14/09","13:45:19",25.86,30.062,18.60,51.1,3.74,1.880,7.45,2.9
"05/14/09","14:00:19",25.95,29.383,18.14,52.5,3.85,1.910,7.45,3.4
"05/14/09","14:15:19",25.96,29.114,17.95,51.0,3.74,1.929,7.42,3.6
"05/14/09","14:30:19",25.94,29.114,17.95,47.5,3.49,1.917,7.40,3.6
"05/14/09","14:45:18",27.48,13.703,7.88,81.5,6.17,1.955,7.57,27.8
"05/14/09","15:00:19",27.40,13.878,7.99,82.6,6.25,1.950,7.54,3.7
"05/14/09","15:15:19",27.21,14.553,8.42,79.3,6.00,1.954,7.51,3.1
"05/14/09","15:30:19",27.08,14.922,8.65,78.6,5.96,1.963,7.50,4.0
"05/14/09","15:45:19",26.96,15.861,9.24,76.9,5.82,1.985,7.49,3.6
"05/14/09","16:00:19",26.88,16.495,9.64,74.9,5.67,1.973,7.49,3.0
"05/14/09","16:15:19",26.21,27.380,16.78,48.6,3.57,1.962,7.36,2.9
"05/14/09","16:30:19",26.23,27.608,16.93,42.9,3.15,1.954,7.33,3.1
"05/14/09","16:45:19",26.33,25.551,15.55,44.0,3.25,1.934,7.33,3.1
"05/14/09","17:00:19",26.41,22.792,13.72,46.9,3.50,1.926,7.34,2.8
"05/14/09","17:15:19",26.40,22.202,13.33,46.2,3.45,1.896,7.32,3.0
"05/14/09","17:30:19",26.31,21.169,12.66,52.2,3.92,1.876,7.35,3.1
"05/14/09","17:45:18",26.49,6.118,3.32,71.7,5.66,1.842,7.39,9.6
"05/14/09","18:00:18",26.12,5.696,3.07,69.5,5.53,1.779,7.33,3.6
"05/14/09","18:15:19",25.93,4.989,2.67,67.6,5.41,1.723,7.30,3.5
"05/14/09","18:30:19",25.58,3.097,1.61,66.6,5.39,1.696,7.31,11.5
"05/14/09","18:45:19",25.22,2.543,1.31,63.3,5.17,1.641,7.28,3.6
"05/14/09","19:00:19",25.40,2.443,1.25,63.3,5.15,1.590,7.28,4.0
"05/14/09","19:15:19",25.39,2.513,1.29,63.2,5.15,1.557,7.28,5.0
"05/14/09","19:30:19",25.18,2.263,1.16,62.3,5.10,1.504,7.27,6.3
"05/14/09","19:45:19",25.11,1.218,0.60,63.4,5.21,1.449,7.30,8.9
"05/14/09","20:00:19",24.98,0.463,0.22,63.5,5.24,1.404,7.32,10.6
"05/14/09","20:15:19",24.84,0.390,0.19,63.3,5.24,1.360,7.31,6.2
"05/14/09","20:30:19",24.76,0.372,0.18,64.0,5.30,1.318,7.32,6.2
"05/14/09","20:45:19",24.61,0.363,0.17,64.1,5.33,1.274,7.32,6.1
"05/14/09","21:00:19",24.45,0.355,0.17,64.0,5.34,1.237,7.32,5.0
"05/14/09","21:15:19",24.31,0.352,0.17,63.9,5.34,1.209,7.32,5.4
"05/14/09","21:30:19",24.23,0.351,0.17,63.6,5.32,1.181,7.32,5.3
"05/14/09","21:45:19",24.18,0.351,0.17,63.3,5.31,1.161,7.32,4.4
"05/14/09","22:00:19",24.15,0.350,0.17,63.3,5.31,1.139,7.32,3.9
"05/14/09","22:15:19",24.11,0.351,0.17,63.4,5.32,1.117,7.32,3.9
"05/14/09","22:30:18",24.08,0.355,0.17,63.5,5.33,1.094,7.32,3.8
"05/14/09","22:45:19",24.06,0.357,0.17,63.4,5.33,1.080,7.32,3.9
"05/14/09","23:00:19",24.06,0.357,0.17,63.6,5.34,1.069,7.32,4.0
"05/14/09","23:15:19",24.04,0.359,0.17,63.4,5.33,1.057,7.33,3.5
"05/14/09","23:30:20",24.03,0.360,0.17,63.3,5.32,1.050,7.32,3.5
"05/14/09","23:45:19",24.01,0.362,0.17,63.2,5.32,1.041,7.32,3.2
"05/15/09","00:00:18",23.99,0.363,0.17,63.3,5.33,1.034,7.32,2.9
"05/15/09","00:15:19",23.96,0.363,0.17,63.4,5.34,1.035,7.32,2.6
"05/15/09","00:30:19",23.94,0.363,0.17,63.1,5.31,1.040,7.32,2.6
"05/15/09","00:45:19",23.92,0.366,0.17,63.3,5.33,1.051,7.33,2.5
"05/15/09","01:00:19",23.90,0.370,0.18,63.4,5.34,1.078,7.33,2.0
"05/15/09","01:15:19",23.87,0.373,0.18,63.1,5.32,1.107,7.33,1.6
"05/15/09","01:30:19",23.86,0.378,0.18,62.7,5.29,1.152,7.33,1.7
"05/15/09","01:45:18",23.77,0.397,0.19,63.8,5.39,1.193,7.34,1.8
"05/15/09","02:00:18",23.73,0.398,0.19,63.3,5.35,1.238,7.35,1.5